GW3406 Weather Reports


time (UTC)temp
C
wind
direction
speed
KPH
gust
KPH
rain 1hr
cm
rain 24hr
cm
rain mn
cm
humidity
%
barometer
mb
20260510180137 23 140 6.4 16.1 0.00 0.00 0.00 49 1005.2
20260510175633 23 140 11.3 14.5 0.00 0.00 0.00 50 1005.1
20260510175128 22 268 3.2 11.3 0.00 0.00 0.00 51 1005.2
20260510174626 24 129 8.0 9.7 0.00 0.00 0.00 46 1005.3
20260510174124 23 292 3.2 4.8 0.00 0.00 0.00 50 1005.3
20260510173619 22 151 1.6 4.8 0.00 0.00 0.00 53 1005.2
20260510173116 22 164 6.4 6.4 0.00 0.00 0.00 50 1005.4
20260510172611 22 128 3.2 4.8 0.00 0.00 0.00 51 1005.5
20260510172108 22 161 4.8 11.3 0.00 0.00 0.00 51 1005.2
20260510171604 21 31 0.0 11.3 0.00 0.00 0.00 52 1005.5
20260510171102 22 117 8.0 12.9 0.00 0.00 0.00 51 1005.5
20260510170558 23 234 4.8 14.5 0.00 0.00 0.00 47 1005.4
20260510170055 22 209 1.6 6.4 0.00 0.00 0.00 50 1005.6
20260510165550 22 133 1.6 12.9 0.00 0.00 0.00 56 1005.4
20260510165047 22 123 3.2 14.5 0.00 0.00 0.00 54 1005.5
20260510164545 22 235 6.4 16.1 0.00 0.00 0.00 50 1005.5
20260510164040 22 100 9.7 14.5 0.00 0.00 0.00 52 1005.7
20260510163530 22 122 8.0 16.1 0.00 0.00 0.00 53 1005.6
20260510163027 22 302 0.0 6.4 0.00 0.00 0.00 54 1005.6
20260510162522 21 129 11.3 14.5 0.00 0.00 0.00 52 1005.7
20260510162019 21 140 8.0 11.3 0.00 0.00 0.00 55 1005.4
20260510161514 21 147 6.4 9.7 0.00 0.00 0.00 55 1005.7
20260510161011 22 161 9.7 12.9 0.00 0.00 0.00 53 1005.8
20260510160503 21 164 3.2 4.8 0.00 0.00 0.00 52 1005.7
20260510160002 21 173 8.0 12.9 0.00 0.00 0.00 53 1005.7
20260510155458 21 160 3.2 20.9 0.00 0.00 0.00 54 1005.7
20260510154954 21 161 12.9 22.5 0.00 0.00 0.00 52 1005.8
20260510154445 22 293 8.0 14.5 0.00 0.00 0.00 54 1005.6
20260510153944 21 152 8.0 16.1 0.00 0.00 0.00 55 1005.6
20260510153440 21 256 8.0 14.5 0.00 0.00 0.00 57 1005.9
20260510152937 21 149 8.0 20.9 0.00 0.00 0.00 56 1005.8
20260510152435 21 152 6.4 12.9 0.00 0.00 0.00 62 1005.9
20260510151931 21 168 8.0 16.1 0.00 0.00 0.00 61 1005.8
20260510151428 20 315 3.2 14.5 0.00 0.00 0.00 58 1005.8
20260510150924 21 280 8.0 12.9 0.00 0.00 0.00 61 1005.7
20260510150420 21 156 4.8 11.3 0.00 0.00 0.00 60 1005.8
20260510145916 20 211 3.2 11.3 0.00 0.00 0.00 60 1005.9
20260510145413 20 208 9.7 16.1 0.00 0.00 0.00 61 1005.9
20260510144910 20 257 9.7 14.5 0.00 0.00 0.00 59 1005.7
20260510144406 20 231 11.3 20.9 0.00 0.00 0.00 62 1005.7
20260510143901 20 245 6.4 9.7 0.00 0.00 0.00 58 1005.7
20260510143357 20 167 3.2 12.9 0.00 0.00 0.00 62 1005.5
20260510142854 20 252 8.0 11.3 0.00 0.00 0.00 60 1005.8
20260510142351 20 261 6.4 9.7 0.00 0.00 0.00 63 1005.6
20260510141848 19 249 6.4 12.9 0.00 0.00 0.00 64 1005.6
20260510141345 19 210 8.0 16.1 0.00 0.00 0.00 65 1005.7
20260510140842 19 105 8.0 11.3 0.00 0.00 0.00 64 1005.6
20260510140337 18 133 6.4 12.9 0.00 0.00 0.00 66 1005.6
20260510135831 19 195 1.6 11.3 0.00 0.00 0.00 66 1005.6
20260510135327 18 136 1.6 11.3 0.00 0.00 0.00 68 1005.8
20260510134825 19 145 6.4 11.3 0.00 0.00 0.00 67 1005.8
20260510134322 18 262 3.2 6.4 0.00 0.00 0.00 70 1005.7
20260510133818 17 223 4.8 12.9 0.00 0.00 0.00 71 1005.7
20260510133314 17 294 6.4 9.7 0.00 0.00 0.00 72 1005.6
20260510132809 17 165 1.6 6.4 0.00 0.00 0.00 73 1005.7
20260510132308 17 322 1.6 6.4 0.00 0.00 0.00 73 1005.6
20260510131805 17 240 4.8 11.3 0.00 0.00 0.00 74 1005.7
20260510131302 17 156 1.6 6.4 0.00 0.00 0.00 75 1005.7
20260510130759 16 214 0.0 4.8 0.00 0.00 0.00 75 1005.6
20260510130255 16 264 4.8 9.7 0.00 0.00 0.00 77 1005.7
20260510125752 16 136 6.4 6.4 0.00 0.00 0.00 77 1005.6
20260510125248 16 173 0.0 12.9 0.00 0.00 0.00 79 1005.4
20260510124745 15 259 1.6 6.4 0.00 0.00 0.00 78 1005.5
20260510124242 15 236 3.2 9.7 0.00 0.00 0.00 80 1005.4
20260510123737 15 217 9.7 11.3 0.00 0.00 0.00 80 1005.3
20260510123233 15 234 1.6 6.4 0.00 0.00 0.00 80 1005.4
20260510122724 15 256 4.8 6.4 0.00 0.00 0.00 83 1005.2
20260510122221 15 260 8.0 9.7 0.00 0.00 0.00 81 1005.2
20260510121717 14 272 3.2 4.8 0.00 0.00 0.00 83 1005.1
20260510121215 14 151 3.2 6.4 0.00 0.00 0.00 84 1005.2
20260510120712 13 278 6.4 6.4 0.00 0.00 0.00 85 1005.1
20260510120208 13 113 0.0 3.2 0.00 0.00 0.00 90 1005.1
20260510115704 12 163 1.6 3.2 0.00 0.00 0.00 92 1005.1
20260510115203 12 256 0.0 3.2 0.00 0.00 0.00 95 1005.1
20260510114657 11 246 1.6 1.6 0.00 0.00 0.00 97 1005.0
20260510114154 11 220 1.6 3.2 0.00 0.00 0.00 99 1005.1
20260510113643 10 192 0.0 3.2 0.00 0.00 0.00 99 1005.1
20260510113141 10 234 3.2 3.2 0.00 0.00 0.00 99 1004.9
20260510112637 9 261 3.2 3.2 0.00 0.00 0.00 99 1004.9
20260510112134 8 253 3.2 3.2 0.00 0.00 0.00 99 1004.6
20260510111630 8 265 1.6 3.2 0.00 0.00 0.00 99 1004.7
20260510111126 7 235 0.0 0.0 0.00 0.00 0.00 99 1004.7
20260510110622 7 240 0.0 0.0 0.00 0.00 0.00 99 1004.3
20260510110120 7 222 0.0 0.0 0.00 0.00 0.00 99 1004.7
20260510105615 6 219 1.6 3.2 0.00 0.00 0.00 99 1004.4
20260510105109 6 189 0.0 0.0 0.00 0.00 0.00 99 1004.2
20260510104607 6 178 0.0 0.0 0.00 0.00 0.00 99 1004.2
20260510104103 6 218 0.0 0.0 0.00 0.00 0.00 99 1004.0
20260510103600 5 156 0.0 0.0 0.00 0.00 0.00 99 1004.1
20260510103056 5 198 0.0 0.0 0.00 0.00 0.00 99 1004.0
20260510102551 5 164 0.0 0.0 0.00 0.00 0.00 99 1004.0
20260510102048 5 183 0.0 0.0 0.00 0.00 0.00 99 1004.0
20260510101546 5 165 0.0 3.2 0.00 0.00 0.00 99 1003.9
20260510101044 5 225 0.0 0.0 0.00 0.00 0.00 99 1004.0
20260510100540 5 172 0.0 1.6 0.00 0.00 0.00 99 1003.9
20260510100037 5 182 0.0 0.0 0.00 0.00 0.00 99 1004.0
20260510095533 5 241 1.6 3.2 0.00 0.00 0.00 99 1004.1
20260510095032 5 208 1.6 1.6 0.00 0.00 0.00 99 1003.9
20260510094527 5 210 1.6 3.2 0.00 0.00 0.00 99 1003.9
20260510094023 5 164 1.6 1.6 0.00 0.00 0.00 99 1003.8
20260510093519 6 149 1.6 3.2 0.00 0.00 0.00 99 1003.9
20260510093016 6 231 1.6 3.2 0.00 0.00 0.00 99 1003.9
20260510092513 6 241 1.6 3.2 0.00 0.00 0.00 99 1003.6
20260510092012 6 187 1.6 3.2 0.00 0.00 0.00 99 1003.8
20260510091509 6 172 0.0 0.0 0.00 0.00 0.00 99 1003.6
20260510091005 6 158 0.0 0.0 0.00 0.00 0.00 99 1003.5
20260510090503 6 194 0.0 0.0 0.00 0.00 0.00 99 1003.5
20260510085958 6 181 0.0 0.0 0.00 0.00 0.00 99 1003.4
20260510085453 6 178 0.0 0.0 0.00 0.00 0.00 99 1003.5
20260510084949 6 211 0.0 0.0 0.00 0.00 0.00 99 1003.4
20260510084446 6 227 0.0 0.0 0.00 0.00 0.00 99 1003.3
20260510083943 6 213 0.0 0.0 0.00 0.00 0.00 99 1003.5
20260510083439 6 215 0.0 0.0 0.00 0.00 0.00 99 1003.3
20260510082935 6 222 0.0 0.0 0.00 0.00 0.00 99 1003.2
20260510082433 6 236 0.0 0.0 0.00 0.00 0.00 99 1003.2
20260510081932 5 197 0.0 0.0 0.00 0.00 0.00 99 1003.1
20260510081428 5 219 0.0 1.6 0.00 0.00 0.00 99 1003.2
20260510080925 5 173 1.6 1.6 0.00 0.00 0.00 99 1003.0
20260510080423 5 184 0.0 0.0 0.00 0.00 0.00 99 1003.1
20260510075920 5 167 0.0 0.0 0.00 0.00 0.00 99 1003.1
20260510075418 5 196 0.0 0.0 0.00 0.00 0.00 99 1002.9
20260510074915 6 191 0.0 0.0 0.00 0.00 0.00 99 1003.0
20260510074412 6 203 0.0 1.6 0.00 0.00 0.00 99 1003.0
20260510073908 5 161 0.0 0.0 0.00 0.00 0.00 99 1002.8
20260510073404 5 166 1.6 1.6 0.00 0.00 0.00 99 1002.9
20260510072900 6 148 1.6 3.2 0.00 0.00 0.00 99 1002.8
20260510072357 6 204 1.6 3.2 0.00 0.00 0.00 99 1002.9
20260510071853 6 247 3.2 3.2 0.00 0.00 0.00 99 1002.9
20260510071349 6 202 1.6 3.2 0.00 0.00 0.00 99 1002.9
20260510070848 6 167 0.0 0.0 0.00 0.00 0.00 99 1002.8
20260510070345 6 223 1.6 1.6 0.00 0.00 0.00 99 1002.9
20260510065844 6 210 0.0 3.2 0.00 0.00 0.00 99 1003.2
20260510065342 6 191 0.0 0.0 0.00 0.00 0.00 99 1003.0
20260510064838 6 157 0.0 0.0 0.00 0.00 0.00 99 1002.8
20260510064336 6 155 0.0 0.0 0.00 0.00 0.00 99 1002.8
20260510063832 6 187 0.0 0.0 0.00 0.00 0.00 99 1002.6
20260510063329 6 162 0.0 0.0 0.00 0.00 0.00 99 1002.8
20260510062826 6 147 0.0 0.0 0.00 0.00 0.00 99 1002.9
20260510062321 6 155 0.0 0.0 0.00 0.00 0.00 99 1002.9
20260510061816 6 160 0.0 0.0 0.00 0.00 0.00 99 1002.6
20260510061314 6 217 0.0 0.0 0.00 0.00 0.00 99 1002.8
20260510060810 6 182 1.6 1.6 0.00 0.00 0.00 99 1002.9
20260510060307 6 166 0.0 0.0 0.00 0.00 0.00 98 1002.6
20260510055804 6 168 0.0 1.6 0.00 0.00 0.00 98 1002.6
20260510055306 6 157 1.6 1.6 0.00 0.00 0.00 98 1002.6
20260510054802 6 161 1.6 1.6 0.00 0.00 0.00 98 1002.8
20260510054258 6 169 1.6 1.6 0.00 0.00 0.00 98 1002.6
20260510053757 6 245 0.0 0.0 0.00 0.00 0.00 98 1003.0
20260510053248 6 231 1.6 1.6 0.00 0.00 0.00 98 1003.1
20260510052744 6 180 1.6 3.2 0.00 0.00 0.00 98 1002.8
20260510052240 6 180 1.6 3.2 0.00 0.00 0.00 98 1003.1
20260510051736 6 213 1.6 3.2 0.00 0.00 0.00 98 1003.0
20260510051233 6 249 1.6 3.2 0.00 0.00 0.00 98 1003.0
20260510050730 6 174 1.6 1.6 0.00 0.00 0.00 98 1003.1
20260510050227 6 180 0.0 0.0 0.00 0.00 0.00 98 1003.2
20260510045724 6 169 1.6 1.6 0.00 0.00 0.00 98 1003.2
20260510045221 -17 0.0 0.0 0.00 0.00 0.00 1002.9
20260510044717 -17 0.0 0.0 0.00 0.00 0.00 1003.0
20260510044216 -17 0.0 0.0 0.00 0.00 0.00 1003.1
20260510043710 -17 0.0 0.0 0.00 0.00 0.00 1003.0
20260510043207 -17 0.0 0.0 0.00 0.00 0.00 1003.1
20260510042704 -17 0.0 0.0 0.00 0.00 0.00 1002.9
20260510042200 -17 0.0 0.0 0.00 0.00 0.00 1002.9
20260510041657 6 166 1.6 1.6 0.00 0.00 0.00 96 1003.0
20260510041155 6 166 1.6 1.6 0.00 0.00 0.00 96 1002.8
20260510040651 -17 0.0 0.0 0.00 0.00 0.00 1002.9
20260510040148 7 165 1.6 1.6 0.00 0.00 0.00 96 1003.0
20260510035644 7 165 1.6 1.6 0.00 0.00 0.00 96 1003.0
20260510035139 7 165 1.6 1.6 0.00 0.00 0.00 96 1003.0
20260510034636 7 189 1.6 1.6 0.00 0.00 0.00 96 1003.0
20260510034133 7 179 0.0 1.6 0.00 0.00 0.00 96 1003.0
20260510033629 7 234 1.6 1.6 0.00 0.00 0.00 96 1002.9
20260510033127 7 211 1.6 1.6 0.00 0.00 0.00 96 1003.0
20260510032624 7 211 1.6 1.6 0.00 0.00 0.00 96 1003.0
20260510032119 7 173 1.6 1.6 0.00 0.00 0.00 95 1002.9
20260510031614 7 149 1.6 1.6 0.00 0.00 0.00 95 1003.1
20260510031111 7 257 1.6 1.6 0.00 0.00 0.00 95 1002.9
20260510030606 7 215 3.2 3.2 0.00 0.00 0.00 95 1003.0
20260510030104 -17 0.0 0.0 0.00 0.00 0.00 1002.9
20260510025600 7 212 1.6 1.6 0.00 0.00 0.00 94 1002.9
20260510025058 7 212 1.6 1.6 0.00 0.00 0.00 94 1002.8
20260510024554 7 198 1.6 1.6 0.00 0.00 0.00 94 1002.9
20260510024051 7 163 1.6 1.6 0.00 0.00 0.00 93 1002.6
20260510023547 7 189 1.6 1.6 0.00 0.00 0.00 93 1002.8
20260510023044 7 221 1.6 3.2 0.00 0.00 0.00 93 1002.4
20260510022544 7 164 1.6 1.6 0.00 0.00 0.00 93 1002.3
20260510022038 8 222 0.0 0.0 0.00 0.00 0.00 93 1002.3
20260510021535 7 178 1.6 1.6 0.00 0.00 0.00 92 1002.3
20260510021032 8 162 1.6 1.6 0.00 0.00 0.00 92 1002.3
20260510020527 8 167 1.6 1.6 0.00 0.00 0.00 91 1002.1
20260510020022 8 246 1.6 3.2 0.00 0.00 0.00 90 1002.2
20260510015518 8 246 1.6 1.6 0.00 0.00 0.00 91 1001.9
20260510015014 8 245 3.2 3.2 0.00 0.00 0.00 91 1002.0
20260510014511 8 160 1.6 3.2 0.00 0.00 0.00 90 1001.6
20260510014008 8 211 0.0 0.0 0.00 0.00 0.00 90 1001.5
20260510013502 9 237 0.0 1.6 0.00 0.00 0.00 89 1001.5
20260510012959 9 236 1.6 3.2 0.00 0.00 0.00 88 1001.6
20260510012453 9 242 0.0 1.6 0.00 0.00 0.00 88 1001.5
20260510011949 10 221 1.6 3.2 0.00 0.00 0.00 87 1001.5
20260510011444 10 182 0.0 1.6 0.00 0.00 0.00 86 1001.4
20260510010940 10 208 1.6 1.6 0.00 0.00 0.00 85 1001.4
20260510010437 11 235 0.0 0.0 0.00 0.00 0.00 83 1001.1
20260510005933 11 215 0.0 0.0 0.00 0.00 0.00 82 1001.1
20260510005424 11 214 0.0 1.6 0.00 0.00 0.00 81 1001.2
20260510004921 11 229 0.0 0.0 0.00 0.00 0.00 81 1001.2
20260510004419 11 214 0.0 1.6 0.00 0.00 0.00 81 1001.4
20260510003917 12 182 0.0 0.0 0.00 0.00 0.00 79 1001.3
20260510003414 12 233 0.0 1.6 0.00 0.00 0.00 77 1000.9
20260510002913 12 212 1.6 1.6 0.00 0.00 0.00 77 1001.1
20260510002410 12 246 3.2 3.2 0.00 0.00 0.00 77 1000.8
20260510001906 12 250 1.6 1.6 0.00 0.00 0.00 76 1000.6
20260510001404 13 236 1.6 3.2 0.00 0.00 0.00 75 1000.5
20260510000901 13 227 1.6 3.2 0.00 0.00 0.00 75 1000.6
20260510000357 13 242 1.6 3.2 0.00 0.00 0.00 73 1000.4
20260509235854 13 196 1.6 3.2 0.00 0.00 0.00 69 1000.3
20260509235351 14 250 1.6 3.2 0.00 0.00 0.00 71 1000.4
20260509234847 14 223 0.0 1.6 0.00 0.00 0.00 68 1000.2
20260509234344 15 214 0.0 1.6 0.00 0.00 0.00 68 1000.2
20260509233842 15 233 1.6 1.6 0.00 0.00 0.00 66 1000.2
20260509233340 16 255 1.6 1.6 0.00 0.00 0.00 63 1000.0
20260509232835 16 237 3.2 3.2 0.00 0.00 0.00 58 1000.1
20260509232333 17 205 1.6 4.8 0.00 0.00 0.00 58 1000.0
20260509231829 17 251 0.0 1.6 0.00 0.00 0.00 58 1000.0
20260509231326 17 180 1.6 4.8 0.00 0.00 0.00 55 999.9
20260509230824 18 282 1.6 3.2 0.00 0.00 0.00 54 1000.1
20260509230320 18 156 8.0 12.9 0.00 0.00 0.00 53 1000.1
20260509225815 18 180 6.4 16.1 0.00 0.00 0.00 54 1000.1
20260509225312 18 237 3.2 9.7 0.00 0.00 0.00 54 1000.0
20260509224809 18 298 0.0 3.2 0.00 0.00 0.00 52 1000.0
20260509224305 18 289 3.2 9.7 0.00 0.00 0.00 51 1000.0
20260509223801 18 257 3.2 9.7 0.00 0.00 0.00 50 1000.0
20260509223259 19 198 1.6 4.8 0.00 0.00 0.00 52 1000.1
20260509222755 19 224 4.8 6.4 0.00 0.00 0.00 50 1000.3
20260509222250 19 148 3.2 9.7 0.00 0.00 0.00 48 1000.1
20260509221746 20 201 3.2 4.8 0.00 0.00 0.00 49 1000.0
20260509221243 20 297 1.6 11.3 0.00 0.00 0.00 48 1000.2
20260509220733 20 123 1.6 6.4 0.00 0.00 0.00 48 1000.1
20260509220230 21 132 6.4 11.3 0.00 0.00 0.00 49 1000.1
20260509215725 20 159 3.2 6.4 0.00 0.00 0.00 49 999.8
20260509215222 20 140 3.2 4.8 0.00 0.00 0.00 52 1000.0
20260509214719 19 156 3.2 11.3 0.00 0.00 0.00 52 999.9
20260509214216 19 236 4.8 11.3 0.00 0.00 0.00 52 999.8
20260509213713 19 290 8.0 12.9 0.00 0.00 0.00 51 999.7
20260509213208 19 165 6.4 17.7 0.00 0.00 0.00 52 999.7
20260509212707 19 275 6.4 20.9 0.00 0.00 0.00 50 999.8
20260509212203 19 194 3.2 11.3 0.00 0.00 0.00 51 999.5
20260509211659 19 287 4.8 14.5 0.00 0.00 0.00 49 999.6
20260509211156 20 203 3.2 9.7 0.00 0.00 0.00 50 999.8
20260509210652 20 142 8.0 14.5 0.00 0.00 0.00 50 999.6
20260509210144 20 245 3.2 14.5 0.00 0.00 0.00 49 999.5
20260509205639 19 176 3.2 11.3 0.00 0.00 0.00 49 999.5
20260509205138 20 253 9.7 14.5 0.00 0.00 0.00 47 999.2
20260509204635 21 137 4.8 17.7 0.00 0.00 0.00 46 999.4
20260509204131 21 117 6.4 12.9 0.00 0.00 0.00 47 999.1
20260509203627 20 266 3.2 11.3 0.00 0.00 0.00 46 999.2
20260509203126 21 246 3.2 12.9 0.00 0.00 0.00 44 999.1
20260509202626 21 200 6.4 25.7 0.00 0.00 0.00 47 999.1
20260509202121 20 184 3.2 6.4 0.00 0.00 0.00 47 999.1
20260509201616 19 257 3.2 12.9 0.00 0.00 0.00 48 999.0
20260509201114 19 285 4.8 11.3 0.00 0.00 0.00 46 999.2
20260509200615 20 259 4.8 11.3 0.00 0.00 0.00 46 999.0
20260509200105 21 245 3.2 16.1 0.00 0.00 0.00 44 998.9
20260509195600 20 120 3.2 11.3 0.00 0.00 0.00 46 998.8
20260509195050 19 139 1.6 6.4 0.00 0.00 0.00 49 998.9
20260509194549 20 146 11.3 16.1 0.00 0.00 0.00 46 999.0
20260509194048 21 166 6.4 14.5 0.00 0.00 0.00 43 999.0
20260509193542 20 195 3.2 9.7 0.00 0.00 0.00 46 999.0
20260509193039 21 150 11.3 16.1 0.00 0.00 0.00 46 999.0
20260509192536 20 250 8.0 12.9 0.00 0.00 0.00 44 999.0
20260509192030 20 129 3.2 16.1 0.00 0.00 0.00 44 999.0
20260509191525 20 278 9.7 14.5 0.00 0.00 0.00 43 999.0
20260509191021 20 99 4.8 9.7 0.00 0.00 0.00 45 998.9
20260509190518 21 130 8.0 11.3 0.00 0.00 0.00 45 999.0
20260509190016 20 144 8.0 14.5 0.00 0.00 0.00 45 998.9
20260509185513 21 129 9.7 16.1 0.00 0.00 0.00 43 999.2
20260509185009 20 258 4.8 4.8 0.00 0.00 0.00 47 999.0
20260509184508 20 186 6.4 16.1 0.00 0.00 0.00 49 999.1
20260509184004 20 160 4.8 11.3 0.00 0.00 0.00 47 999.1
20260509183459 20 177 4.8 11.3 0.00 0.00 0.00 49 999.4
20260509182955 20 124 4.8 9.7 0.00 0.00 0.00 48 999.4
20260509182452 20 151 3.2 11.3 0.00 0.00 0.00 49 999.4
20260509181949 20 216 6.4 9.7 0.00 0.00 0.00 50 999.2
20260509181447 20 138 3.2 11.3 0.00 0.00 0.00 47 999.4
20260509180945 20 216 0.0 4.8 0.00 0.00 0.00 48 999.2
20260509180440 21 254 3.2 6.4 0.00 0.00 0.00 47 999.6